Satellite: NOAA-19
Catalog number: 33591
Epoch time:      12074.78359563
Element set:    0300
Inclination:      098.8574 deg
RA of node:       015.7804 deg
Eccentricity:    0.0013310
Arg of perigee:   290.2496 deg
Mean anomaly:     069.7245 deg
Mean motion:   14.11305935 rev/day
Decay rate:        3.3e-07 rev/day^2
Epoch rev:           15969
Checksum:              312

/EX
SB KEPS @ AMSAT  $ORB12075.M
Orbital Elements  12075.MISC

HR AMSAT ORBITAL ELEMENTS FOR MANNED AND MISCELLANEOUS SATELLITES
FROM WA5QGD FORT WORTH,TX March 15, 2012
Send SUBSCRIBE KEPS/UNSUBSCRIBE KEPS to majordomo@amsat.org only
BID: ORB12075.M
TO ALL RADIO AMATEURS BT

Satellite: HUBBLE
Catalog number: 20580
Epoch time:      12075.19440738
Element set:     963
Inclination:      028.4707 deg
RA of node:       038.5295 deg
Eccentricity:    0.0003689
Arg of perigee:   141.7876 deg
Mean anomaly:     218.2985 deg
Mean motion:   15.02272664 rev/day
Decay rate:      1.841e-05 rev/day^2
Epoch rev:              58
Checksum:              309

Satellite: ISS
Catalog number: 25544
Epoch time:      12075.92117777
Element set:     192
Inclination:      051.6400 deg
RA of node:       229.6734 deg
Eccentricity:    0.0016994
Arg of perigee:   159.6837 deg
Mean anomaly:     338.9582 deg
Mean motion:   15.59224002 rev/day
Decay rate:     2.0886e-04 rev/day^2
Epoch rev:           76347
Checksum:              331

Satellite: CO-58
Catalog number: 28895
Epoch time:      12075.63988014
Element set:     123
Inclination:      097.9310 deg
RA of node:       305.9593 deg
Eccentricity:    0.0018973
Arg of perigee:   086.1117 deg
Mean anomaly:     274.2241 deg
Mean motion:   14.60521195 rev/day
Decay rate:       6.94e-06 rev/day^2
Epoch rev:           34000
Checksum:              312

Satellite: FALCON
Catalog number: 30776
Epoch time:      12074.59617009
Element set:    0314
Inclination:      035.4320 deg
RA of node:       134.2883 deg
Eccentricity:    0.0002830
Arg of perigee:   268.4167 deg
Mean anomaly:     091.6225 deg
Mean motion:   15.06833062 rev/day
Decay rate:      4.009e-05 rev/day^2
Epoch rev:           27597
Checksum:              285

Satellite: MAST
Catalog number: 31126
Epoch time:      12075.57095659
Element set:     408
Inclination:      097.8785 deg
RA of node:       092.1373 deg
Eccentricity:    0.0094886
Arg of perigee:   042.8001 deg
Mean anomaly:     318.0556 deg
Mean motion:   14.54064589 rev/day
Decay rate:       4.74e-06 rev/day^2
Epoch rev:           26066
Checksum:              323

Satellite: CAPE1
Catalog number: 31130
Epoch time:      12075.52748953
Element set:     419
Inclination:      097.8850 deg
RA of node:       088.5415 deg
Eccentricity:    0.0102608
Arg of perigee:   055.6543 deg
Mean anomaly:     305.4289 deg
Mean motion:   14.52810023 rev/day
Decay rate:       7.86e-06 rev/day^2
Epoch rev:           26017
Checksum:              297

Satellite: COMPASS
Catalog number: 32787
Epoch time:      12074.66012629
Element set:    0250
Inclination:      097.8097 deg
RA of node:       138.0659 deg
Eccentricity:    0.0015604
Arg of perigee:   014.5083 deg
Mean anomaly:     345.6578 deg
Mean motion:   14.83619714 rev/day
Decay rate:      1.972e-05 rev/day^2
Epoch rev:           20979
Checksum:              325

Satellite: AAUSAT2
Catalog number: 32788
Epoch time:      12074.91901052
Element set:    0243
Inclination:      097.8127 deg
RA of node:       138.6509 deg
Eccentricity:    0.0014977
Arg of perigee:   016.2406 deg
Mean anomaly:     343.9282 deg
Mean motion:   14.83909763 rev/day
Decay rate:      1.947e-05 rev/day^2
Epoch rev:           20985
Checksum:              327

Satellite: DO-64
Catalog number: 32789
Epoch time:      12075.65916429
Element set:     255
Inclination:      097.8218 deg
RA of node:       141.0650 deg
Eccentricity:    0.0014753
Arg of perigee:   008.8342 deg
Mean anomaly:     351.3157 deg
Mean motion:   14.85141211 rev/day
Decay rate:      3.577e-05 rev/day^2
Epoch rev:           20999
Checksum:              318

Satellite: CO-66
Catalog number: 32791
Epoch time:      12075.69417605
Element set:     243
Inclination:      097.8117 deg
RA of node:       138.8900 deg
Eccentricity:    0.0015698
Arg of perigee:   011.4899 deg
Mean anomaly:     348.6613 deg
Mean motion:   14.83110748 rev/day
Decay rate:      1.866e-05 rev/day^2
Epoch rev:           20988
Checksum:              344

Satellite: RS-30
Catalog number: 32953
Epoch time:      12075.84304605
Element set:     610
Inclination:      082.5072 deg
RA of node:       353.1855 deg
Eccentricity:    0.0018848
Arg of perigee:   147.9003 deg
Mean anomaly:     212.3230 deg
Mean motion:   12.43021499 rev/day
Decay rate:        1.0e-07 rev/day^2
Epoch rev:           17296
Checksum:              269

Satellite: TACSAT-3
Catalog number: 35001
Epoch time:      12075.76403871
Element set:     905
Inclination:      040.4464 deg
RA of node:       290.6824 deg
Eccentricity:    0.0011898
Arg of perigee:   299.1689 deg
Mean anomaly:     060.8034 deg
Mean motion:   15.81312926 rev/day
Decay rate:    1.79862e-03 rev/day^2
Epoch rev:           15965
Checksum:              326

